Details From KMSY - Louis Armstrong New Orleans Intl
To MKJP - Norman Manley Intl
Flight Number -
Tags Generated
Created
Modified
Stats Distance 1,032 nm / 1,912 km
Max Altitude 0 ft / 0 m
Waypoints 3
Social Downloads 0
Likes 0
Share VATSIM

Download

Looking for another format? Having issues loading an existing format? Contact us
Advertisement - Login to hide

Notes

Generated

Route

KMSY MLY71 MKJP

ID Type Via Altitude Latitude Longitude Leg Dist Tot Dist Heading (true) Name
O KMSY APT - 0 ft / 0 m 29.99177˚ -90.25724˚ - 0 nm - Louis Armstrong New Orleans Intl
MLY71 FIX - 0 ft / 0 m 17.94091˚ -76.80520˚ 1032 nm 1032 nm 131° / 137° -
O MKJP APT - 0 ft / 0 m 17.94026˚ -76.79945˚ 0 nm 1032 nm 97° / 97° -

Altitude Profile

Advertisement - Login to hide

Weather


0- 5 10 15 20 25 30 35+ Temperature / ° C

Clouds and Precipitation
Forecast for 2018-05-23 06:00 UTC. Updated 33 minutes ago

Ground ~20,000 ft ~40,000 ft Winds

KMSY

Details ICAO KMSY (MSY)
Name Louis Armstrong New Orleans Intl
Region United States
Timezone America/Chicago (UTC-5.0)
Stats Elevation 3 ft / 1 m (AMSL)
Location 29.993349° -90.257406°
Runways 2
Magnetic Variation 0.782° W

METAR

KMSY 230253Z 15005KT 10SM FEW025 SCT250 28/23 A3001 RMK AO2 LTG DSNT N SLP164 FRQ LTGIC DSNT N AND NW T02780228 51018

Decode

TAF

TAF KMSY 222320Z 2300/2406 15006KT P6SM FEW030 SCT200 FM230700 00000KT P6SM FEW015 FEW250 FM231800 05006KT P6SM VCTS FEW030CB SCT090 FM232200 09006KT P6SM VCTS FEW040CB SCT100 FM240000 12006KT P6SM VCTS BKN035CB BKN140

Decode

Departure Runways

ID Width Length Bearing (true) Bearing (mag) Surface Threshold Offset Overrun Length
01 150 ft / 46 m 7,021 ft / 2,140 m 15.41° 16.19° Concrete 0 ft / 0 m 600 ft / 183 m
10 150 ft / 46 m 10,090 ft / 3,075 m 105.55° 106.33° Concrete 0 ft / 0 m 400 ft / 122 m
19 150 ft / 46 m 7,021 ft / 2,140 m 195.41° 196.19° Concrete 0 ft / 0 m 600 ft / 183 m
28 150 ft / 46 m 10,090 ft / 3,075 m 285.57° 286.35° Concrete 305 ft / 93 m 249 ft / 76 m

MKJP

Details ICAO MKJP (KIN)
Name Norman Manley Intl
Region Jamaica
Timezone Unknown (UTC+0.0)
Stats Elevation 10 ft / 3 m (AMSL)
Location 17.935665° -76.787560°
Runways 1
Magnetic Variation 7.590° W

METAR

MKJP 230300Z 12015KT 9999 FEW020 28/25 Q1014

Decode

TAF

TAF MKJP 222315Z 2300/2324 13020KT 9999 FEW020 FEW022CB BECMG 2302/2304 11010KT FEW022 BECMG 2314/2316 13022KT SCT020 FEW022CB

Decode

Destination Runways

ID Width Length Bearing (true) Bearing (mag) Surface Threshold Offset Overrun Length
12 150 ft / 46 m 8,912 ft / 2,717 m 112.09° 119.68° Asphalt 0 ft / 0 m 0 ft / 0 m
30 150 ft / 46 m 8,912 ft / 2,717 m 292.10° 299.69° Asphalt 0 ft / 0 m 0 ft / 0 m

Approach Navaids

Runway Type Ident Frequency Range Bearing (true) Bearing (mag) Slope Elevation
12 Localiser IMLY 109.10 MHz 18 nm / 33 km 115.09° 122.68° - 10 ft / 3 m (AMSL)
12 Glidescope IMLY 109.10 MHz 10 nm / 19 km 115.09° 122.68° 3.00° 8 ft / 2 m (AMSL)

Popular Alternatives